Flag for Greece Weather past 2 weeks in Thessaloniki, Greece

Now
50 °F

Partly cloudy.


Feels Like: 50 °F
Forecast: 44 / 72 °F
Wind: No wind

Location: Thessaloniki Airport

Current Time: Mar 31, 2015 at 6:30:51 AM

Latest Report: Mar 31, 2015 at 5:50 AM


Visibility: N/A

Pressure: 29.74 "Hg

Humidity: 94%

Dew point: 48 °F

Location of ThessalonikiLocation

Historic Weather in Thessaloniki — Graph

°F

Thessaloniki temperature yesterday

Maximum temperature yesterday: 64 °F (at 3:50 PM)
Minimum temperature yesterday: 41 °F (at 6:50 AM)
Average temperature yesterday: 53 °F

Past Weeks' High & Low Weather Summary

 TemperatureHumidityPressure
High64 °F (Mar 30, 3:50 PM)100% (Mar 26, 3:20 AM)30.54 "Hg (Mar 26, 3:20 AM)
Low28 °F (Mar 21, 5:20 AM)17% (Mar 21, 2:20 PM)29.56 "Hg (Mar 27, 3:20 PM)
Average49 °F73%30.06 "Hg
* Reported Mar 16 3:20 AM — Mar 31 4:20 AM, Thessaloniki, Weather by CustomWeather, © 2015

Note: Actual official high and low records may vary slightly from our data, if they occured in-between our weather recording intervals... More about our weather records

Advertising

Thessaloniki weather history for previous 24 hours

 ConditionsComfort  
Time TempWeatherWind HumidityBarometerVisibility
4:20 AM
Tue, Mar 31
50 °FPartly cloudy.2 mph94%29.74 "HgN/A
3:50 AM50 °FPartly cloudy.3 mph94%29.74 "HgN/A
3:20 AM52 °FPartly cloudy.2 mph94%29.74 "HgN/A
2:20 AM52 °FPartly cloudy.5 mph94%29.74 "HgN/A
1:50 AM52 °FPartly cloudy.5 mph94%29.74 "HgN/A
1:20 AM52 °FPartly cloudy.5 mph94%29.74 "HgN/A
12:50 AM54 °FPartly cloudy.5 mph88%29.74 "HgN/A
11:50 PM
Mon, Mar 30
54 °FDrizzle. Mostly cloudy.3 mph88%29.74 "Hg5 mi
11:20 PM54 °FDrizzle. Mostly cloudy.2 mph88%29.74 "Hg5 mi
10:50 PM54 °FMostly cloudy.2 mph88%29.74 "Hg5 mi
10:20 PM54 °FDrizzle. Mostly cloudy.2 mph88%29.74 "Hg5 mi
9:50 PM54 °FLight rain. Mostly cloudy.2 mph88%29.74 "Hg5 mi
9:20 PM55 °FRain. Mostly cloudy.7 mph82%29.74 "Hg5 mi
8:50 PM55 °FRain. Mostly cloudy.2 mph82%29.74 "Hg5 mi
8:20 PM55 °FLight rain. More clouds than sun.3 mph82%29.71 "Hg6 mi
7:20 PM59 °FDrizzle. More clouds than sun.5 mph63%29.71 "HgN/A
6:50 PM61 °FPartly sunny.7 mph55%29.71 "HgN/A
6:20 PM63 °FPartly sunny.5 mph42%29.71 "HgN/A
5:50 PM63 °FPartly sunny.6 mph42%29.71 "HgN/A
5:20 PM63 °FPartly sunny.10 mph45%29.71 "HgN/A
4:50 PM63 °FBroken clouds.10 mph45%29.71 "HgN/A
4:20 PM63 °FPartly sunny.13 mph45%29.71 "HgN/A
3:50 PM64 °FPartly sunny.10 mph43%29.71 "HgN/A
3:20 PM63 °FPartly sunny.6 mph45%29.71 "HgN/A
2:50 PM61 °FScattered clouds.5 mph45%29.74 "HgN/A
2:20 PM61 °FScattered clouds.7 mph42%29.74 "HgN/A
1:50 PM59 °FScattered clouds.6 mph42%29.77 "HgN/A
1:20 PM59 °FScattered clouds.6 mph42%29.77 "HgN/A
12:50 PM57 °FScattered clouds.9 mph51%29.80 "HgN/A
12:20 PM57 °FPassing clouds.7 mph51%29.80 "HgN/A
11:50 AM57 °FSunny.5 mph48%29.80 "Hg10 mi
11:20 AM55 °FSunny.5 mph55%29.80 "Hg10 mi
10:50 AM57 °FSunny.2 mph51%29.83 "Hg10 mi
10:20 AM54 °FSunny.3 mph58%29.83 "Hg10 mi
9:50 AM54 °FSunny.2 mph63%29.83 "Hg10 mi
9:20 AM50 °FPassing clouds.2 mph67%29.83 "HgN/A
8:50 AM46 °FPassing clouds.3 mph76%29.83 "HgN/A
8:20 AM43 °FPassing clouds.6 mph87%29.83 "HgN/A
7:50 AM41 °FPassing clouds.6 mph87%29.83 "Hg6 mi
7:20 AM41 °FPassing clouds.5 mph93%29.83 "Hg5 mi
6:50 AM41 °FPassing clouds.6 mph93%29.83 "HgN/A
6:20 AM43 °FPassing clouds.3 mph87%29.83 "HgN/A
Weather by CustomWeather, © 2015

See weather overviewHow to use our weather pages